TimeEDT,TemperatureF,Dew PointF,Humidity,Sea Level PressureIn,VisibilityMPH,Wind Direction,Wind SpeedMPH,Gust SpeedMPH,PrecipitationIn,Events,Conditions,WindDirDegrees,DateUTC
12:53 AM,63.0,61.0,93,29.67,10.0,Calm,Calm,-,N/A,,Clear,0,2012-04-05 04:53:00
1:53 AM,63.0,61.0,93,29.65,10.0,Calm,Calm,-,N/A,,Clear,0,2012-04-05 05:53:00
2:53 AM,64.0,61.0,90,29.65,10.0,Calm,Calm,-,N/A,,Clear,0,2012-04-05 06:53:00
3:53 AM,64.0,60.1,87,29.65,10.0,Calm,Calm,-,N/A,,Partly Cloudy,0,2012-04-05 07:53:00
4:53 AM,63.0,60.1,90,29.65,10.0,Calm,Calm,-,N/A,,Overcast,0,2012-04-05 08:53:00
5:53 AM,64.0,59.0,84,29.65,10.0,Calm,Calm,-,N/A,,Overcast,0,2012-04-05 09:53:00
6:53 AM,63.0,59.0,87,29.66,10.0,Calm,Calm,-,N/A,,Mostly Cloudy,0,2012-04-05 10:53:00
7:53 AM,61.0,57.9,90,29.68,10.0,Calm,Calm,-,N/A,,Clear,0,2012-04-05 11:53:00
8:53 AM,70.0,61.0,73,29.68,10.0,Calm,Calm,-,N/A,,Clear,0,2012-04-05 12:53:00
9:53 AM,73.0,59.0,61,29.68,10.0,NE,5.8,-,N/A,,Clear,40,2012-04-05 13:53:00
10:53 AM,73.0,57.9,59,29.70,10.0,East,6.9,-,N/A,,Clear,100,2012-04-05 14:53:00
11:53 AM,75.0,57.9,55,29.70,10.0,NE,6.9,-,N/A,,Scattered Clouds,50,2012-04-05 15:53:00
12:53 PM,78.1,59.0,52,29.67,10.0,East,9.2,-,N/A,,Clear,90,2012-04-05 16:53:00
1:53 PM,78.1,59.0,52,29.65,10.0,SE,11.5,18.4,N/A,,Partly Cloudy,140,2012-04-05 17:53:00
2:53 PM,79.0,59.0,50,29.62,10.0,SE,12.7,-,N/A,,Mostly Cloudy,130,2012-04-05 18:53:00
2:59 PM,78.8,59.0,51,29.64,10.0,SE,12.7,19.6,N/A,Thunderstorm,Mostly Cloudy,140,2012-04-05 18:59:00
3:53 PM,77.0,60.1,56,29.60,10.0,North,8.1,26.5,N/A,Thunderstorm,Mostly Cloudy,360,2012-04-05 19:53:00
4:53 PM,66.0,59.0,78,29.64,10.0,North,16.1,26.5,0.00,Thunderstorm,Thunderstorm,10,2012-04-05 20:53:00
5:53 PM,64.0,57.0,78,29.66,10.0,NNE,18.4,26.5,N/A,,Mostly Cloudy,30,2012-04-05 21:53:00
6:53 PM,59.0,53.1,81,29.68,10.0,NE,16.1,27.6,N/A,,Mostly Cloudy,50,2012-04-05 22:53:00
7:53 PM,57.0,51.1,81,29.73,10.0,NE,11.5,-,N/A,,Overcast,40,2012-04-05 23:53:00
8:37 PM,55.4,51.8,88,29.75,10.0,NE,12.7,-,N/A,,Overcast,50,2012-04-06 00:37:00
8:53 PM,55.0,51.1,86,29.73,10.0,NE,12.7,-,N/A,,Overcast,50,2012-04-06 00:53:00
9:53 PM,54.0,50.0,86,29.75,10.0,NNE,8.1,-,0.00,,Overcast,30,2012-04-06 01:53:00
10:02 PM,53.6,51.8,94,29.78,10.0,NNW,5.8,-,0.00,Rain,Light Rain,340,2012-04-06 02:02:00
10:30 PM,53.6,51.8,94,29.79,9.0,North,9.2,-,0.07,Rain,Light Rain,10,2012-04-06 02:30:00
10:46 PM,53.6,51.8,94,29.79,1.8,NE,6.9,-,0.19,Rain,Heavy Rain,40,2012-04-06 02:46:00
10:53 PM,52.0,51.1,97,29.76,1.5,NE,4.6,-,0.38,Rain,Heavy Rain,40,2012-04-06 02:53:00
11:04 PM,51.8,51.8,100,29.78,2.5,NE,6.9,-,0.14,Rain,Heavy Rain,40,2012-04-06 03:04:00
11:13 PM,51.8,51.8,100,29.77,5.0,NNE,10.4,-,0.18,Rain,Rain,30,2012-04-06 03:13:00
11:23 PM,51.8,51.8,100,29.78,6.0,NNE,8.1,-,0.19,Rain,Light Rain,30,2012-04-06 03:23:00
11:32 PM,53.6,51.8,94,29.78,7.0,NNE,6.9,-,0.20,Rain,Light Rain,20,2012-04-06 03:32:00
11:53 PM,53.1,51.1,93,29.75,10.0,NNE,8.1,-,0.21,Rain,Light Rain,20,2012-04-06 03:53:00